QQE715 LGSM-LIEO

Flight info

Callsign QQE715
Flight time 2h 16m
Altitude 43000
Route URNIL UL609 IKARO UR32 RIPLI UL995 KEA UL52 KOR UN604 RUTOM DCT TOMGI DCT DIPOK DCT AGNIS DCT BEROL DCT BETOT DCT ATNET
Aircraft GLF6/M-SBDE2E3FGHIJ4J5M1RWXY/LB1D1

Departure

Time 2026-05-09 12:47
Airport Samos Airport (LGSM)

Arrival

Time 2026-05-09 15:03
Airport Olbia Costa Smeralda Airport (LIEO)
Time Latitude Longitude Altitude Speed Heading
2026-05-09 12:28 37.69070 26.91188 37 ft 0 kts
2026-05-09 12:38 37.69071 26.91188 37 ft 0 kts
2026-05-09 12:39 37.69065 26.91188 37 ft 2 kts
2026-05-09 12:39 37.69051 26.91186 37 ft 2 kts 11°
2026-05-09 12:39 37.69036 26.91180 37 ft 2 kts 31°
2026-05-09 12:40 37.69025 26.91168 36 ft 2 kts 50°
2026-05-09 12:40 37.69016 26.91151 36 ft 2 kts 70°
2026-05-09 12:40 37.69013 26.91133 36 ft 2 kts 89°
2026-05-09 12:40 37.69013 26.91124 36 ft 0 kts 95°
2026-05-09 12:43 37.69013 26.91126 36 ft 1 kts 95°
2026-05-09 12:43 37.69007 26.91207 36 ft 19 kts 95°
2026-05-09 12:44 37.68997 26.91410 35 ft 22 kts 85°
2026-05-09 12:44 37.68991 26.91567 35 ft 16 kts 101°
2026-05-09 12:44 37.68961 26.91677 35 ft 9 kts 148°
2026-05-09 12:44 37.68891 26.91725 35 ft 13 kts 124°
2026-05-09 12:45 37.68879 26.91849 35 ft 17 kts 94°
2026-05-09 12:45 37.68865 26.92042 34 ft 24 kts 94°
2026-05-09 12:45 37.68853 26.92253 32 ft 20 kts 93°
2026-05-09 12:45 37.68868 26.92355 32 ft 9 kts 111°
2026-05-09 12:46 37.68832 26.92344 32 ft 5 kts 274°
2026-05-09 12:46 37.68850 26.92296 32 ft 7 kts 284°
2026-05-09 12:46 37.68875 26.91889 35 ft 88 kts 273°
2026-05-09 12:46 37.68940 26.90788 105 ft 152 kts 274°
2026-05-09 12:47 37.69010 26.89427 940 ft 152 kts 267°
2026-05-09 12:47 37.68736 26.88097 1768 ft 160 kts 237°
2026-05-09 12:47 37.67904 26.87195 2746 ft 161 kts 204°
2026-05-09 12:47 37.66774 26.86849 3452 ft 186 kts 172°
2026-05-09 12:48 37.65558 26.87608 4327 ft 210 kts 147°
2026-05-09 12:48 37.64261 26.88765 5326 ft 234 kts 147°
2026-05-09 12:48 37.62917 26.89965 6315 ft 240 kts 155°
2026-05-09 12:48 37.61359 26.90407 6782 ft 227 kts 184°
2026-05-09 12:49 37.59797 26.90187 7255 ft 217 kts 205°
2026-05-09 12:49 37.58606 26.88955 7769 ft 213 kts 241°
2026-05-09 12:49 37.58271 26.87170 8267 ft 213 kts 274°
2026-05-09 12:49 37.58808 26.85294 8832 ft 254 kts 295°
2026-05-09 12:50 37.59728 26.83178 9375 ft 295 kts 296°
2026-05-09 12:50 37.60733 26.80752 9913 ft 327 kts 290°
2026-05-09 12:50 37.61518 26.77994 10471 ft 334 kts 287°
2026-05-09 12:50 37.62280 26.75259 11040 ft 332 kts 287°
2026-05-09 12:51 37.63061 26.72453 11810 ft 331 kts 287°
2026-05-09 12:51 37.63821 26.69725 12548 ft 332 kts 287°
2026-05-09 12:51 37.64596 26.66940 13298 ft 336 kts 287°
2026-05-09 12:51 37.65365 26.64171 14031 ft 339 kts 287°
2026-05-09 12:52 37.66148 26.61354 14817 ft 342 kts 287°
2026-05-09 12:52 37.66814 26.58955 15447 ft 343 kts 288°
2026-05-09 12:52 37.67612 26.56083 16204 ft 346 kts 287°
2026-05-09 12:52 37.68399 26.53208 16936 ft 348 kts 286°
2026-05-09 12:53 37.68935 26.50260 17664 ft 352 kts 281°
2026-05-09 12:53 37.69418 26.47222 18405 ft 355 kts 281°
2026-05-09 12:53 37.69909 26.44158 19144 ft 358 kts 281°
2026-05-09 12:53 37.70407 26.41052 19898 ft 362 kts 281°
2026-05-09 12:54 37.70906 26.37946 20644 ft 365 kts 281°
2026-05-09 12:54 37.71407 26.34815 21395 ft 369 kts 281°
2026-05-09 12:54 37.71919 26.31615 22167 ft 372 kts 281°
2026-05-09 12:54 37.72431 26.28409 22957 ft 376 kts 281°
2026-05-09 12:55 37.72945 26.25183 23754 ft 379 kts 281°
2026-05-09 12:55 37.73461 26.21933 24545 ft 383 kts 281°
2026-05-09 12:55 37.73984 26.18642 25343 ft 386 kts 281°
2026-05-09 12:55 37.74231 26.15250 26114 ft 390 kts 268°
2026-05-09 12:56 37.73596 26.11921 26890 ft 401 kts 252°
2026-05-09 12:56 37.72119 26.08870 27680 ft 415 kts 238°
2026-05-09 12:56 37.70316 26.05986 28493 ft 421 kts 238°
2026-05-09 12:56 37.68521 26.03066 29269 ft 425 kts 239°
2026-05-09 12:57 37.66690 26.00063 30064 ft 430 kts 240°
2026-05-09 12:57 37.64865 25.97062 30862 ft 432 kts 240°
2026-05-09 12:57 37.63041 25.94067 31664 ft 432 kts 240°
2026-05-09 12:57 37.61222 25.91082 32459 ft 429 kts 241°
2026-05-09 12:58 37.59417 25.88120 33254 ft 424 kts 241°
2026-05-09 12:58 37.57614 25.85171 34042 ft 420 kts 241°
2026-05-09 12:58 37.55857 25.82303 34748 ft 417 kts 241°
2026-05-09 12:58 37.54093 25.79423 35458 ft 416 kts 242°
2026-05-09 12:59 37.52296 25.76489 36078 ft 422 kts 241°
2026-05-09 12:59 37.50497 25.73558 36645 ft 429 kts 240°
2026-05-09 12:59 37.48656 25.70564 37225 ft 434 kts 241°
2026-05-09 12:59 37.46802 25.67551 37843 ft 439 kts 240°
2026-05-09 13:00 37.44900 25.64456 38469 ft 442 kts 240°
2026-05-09 13:00 37.43048 25.61434 39106 ft 439 kts 240°
2026-05-09 13:00 37.41184 25.58394 39636 ft 436 kts 240°
2026-05-09 13:00 37.39328 25.55368 40104 ft 435 kts 240°
2026-05-09 13:01 37.37479 25.52355 40556 ft 437 kts 240°
2026-05-09 13:01 37.35613 25.49317 41027 ft 439 kts 239°
2026-05-09 13:01 37.33747 25.46287 41480 ft 441 kts 239°
2026-05-09 13:01 37.31869 25.43235 41923 ft 443 kts 239°
2026-05-09 13:02 37.30084 25.40069 42366 ft 436 kts 248°
2026-05-09 13:02 37.29074 25.36549 42801 ft 426 kts 263°
2026-05-09 13:02 37.28888 25.32838 42911 ft 429 kts 276°
2026-05-09 13:02 37.29543 25.29157 42945 ft 434 kts 288°
2026-05-09 13:03 37.30486 25.25565 42942 ft 438 kts 288°
2026-05-09 13:03 37.32403 25.18366 42922 ft 427 kts 289°
2026-05-09 13:04 37.34272 25.11371 42960 ft 424 kts 289°
2026-05-09 13:04 37.36150 25.04330 42919 ft 426 kts 289°
2026-05-09 13:05 37.38036 24.97247 42937 ft 428 kts 289°
2026-05-09 13:05 37.39928 24.90120 42931 ft 426 kts 289°
2026-05-09 13:06 37.41805 24.83035 42942 ft 425 kts 289°
2026-05-09 13:06 37.43675 24.75956 42917 ft 426 kts 289°
2026-05-09 13:07 37.45538 24.68886 42907 ft 425 kts 289°
2026-05-09 13:07 37.47397 24.61806 42913 ft 425 kts 289°
2026-05-09 13:08 37.49243 24.54755 42906 ft 424 kts 289°
2026-05-09 13:08 37.51086 24.47699 42910 ft 424 kts 289°
2026-05-09 13:09 37.52938 24.40587 42899 ft 424 kts 289°
2026-05-09 13:09 37.54770 24.33535 42902 ft 423 kts 289°
2026-05-09 13:10 37.56662 24.26510 42913 ft 425 kts 290°
2026-05-09 13:10 37.58630 24.19498 42916 ft 424 kts 290°
2026-05-09 13:11 37.60585 24.12511 42911 ft 422 kts 290°
2026-05-09 13:11 37.62542 24.05498 42901 ft 423 kts 290°
2026-05-09 13:12 37.64492 23.98484 42903 ft 422 kts 290°
2026-05-09 13:12 37.66428 23.91511 42898 ft 421 kts 290°
2026-05-09 13:13 37.68369 23.84494 42892 ft 421 kts 290°
2026-05-09 13:13 37.70289 23.77537 42899 ft 422 kts 290°
2026-05-09 13:14 37.72210 23.70561 42894 ft 421 kts 290°
2026-05-09 13:16 37.79859 23.42586 42908 ft 422 kts 290°
2026-05-09 13:16 37.81765 23.35558 42907 ft 422 kts 290°
2026-05-09 13:17 37.83666 23.28535 42912 ft 423 kts 289°
2026-05-09 13:17 37.85571 23.21477 42923 ft 423 kts 289°
2026-05-09 13:18 37.87460 23.14457 42937 ft 423 kts 289°
2026-05-09 13:18 37.89352 23.07411 42948 ft 422 kts 289°
2026-05-09 13:19 37.91238 23.00356 42974 ft 422 kts 290°
2026-05-09 13:19 37.93055 22.93306 42960 ft 422 kts 284°
2026-05-09 13:20 37.94030 22.85978 42941 ft 424 kts 281°
2026-05-09 13:20 37.94977 22.78607 42917 ft 423 kts 281°
2026-05-09 13:21 37.95919 22.71250 42906 ft 425 kts 281°
2026-05-09 13:21 37.96941 22.63897 42923 ft 424 kts 284°
2026-05-09 13:22 37.98136 22.56569 42928 ft 423 kts 283°
2026-05-09 13:22 37.99314 22.49276 42946 ft 424 kts 283°
2026-05-09 13:23 38.02248 22.30938 43039 ft 426 kts 283°
2026-05-09 13:24 38.03419 22.23567 43050 ft 425 kts 283°
2026-05-09 13:24 38.04587 22.16180 43043 ft 426 kts 283°
2026-05-09 13:25 38.05743 22.08836 43023 ft 426 kts 283°
2026-05-09 13:26 38.07482 21.97745 43028 ft 425 kts 282°
2026-05-09 13:26 38.08652 21.90232 42999 ft 423 kts 283°
2026-05-09 13:27 38.09823 21.82680 42974 ft 425 kts 283°
2026-05-09 13:27 38.10965 21.75283 42956 ft 424 kts 283°
2026-05-09 13:28 38.12086 21.67986 42952 ft 423 kts 283°
2026-05-09 13:28 38.13216 21.60617 42953 ft 424 kts 283°
2026-05-09 13:29 38.14332 21.53292 42948 ft 424 kts 283°
2026-05-09 13:29 38.15458 21.45870 42946 ft 425 kts 283°
2026-05-09 13:30 38.16545 21.38244 42944 ft 426 kts 282°
2026-05-09 13:30 38.17555 21.30821 42958 ft 425 kts 281°
2026-05-09 13:31 38.18553 21.23456 42947 ft 423 kts 282°
2026-05-09 13:31 38.19550 21.16071 42949 ft 424 kts 281°
2026-05-09 13:32 38.20545 21.08669 42961 ft 423 kts 281°
2026-05-09 13:32 38.22024 20.97568 42951 ft 424 kts 281°
2026-05-09 13:33 38.23003 20.90188 42954 ft 423 kts 281°
2026-05-09 13:33 38.23980 20.82795 42951 ft 423 kts 281°
2026-05-09 13:34 38.24945 20.75450 42953 ft 423 kts 281°
2026-05-09 13:34 38.25908 20.68067 42957 ft 422 kts 281°
2026-05-09 13:35 38.26868 20.60680 42958 ft 422 kts 281°
2026-05-09 13:35 38.27822 20.53304 42969 ft 423 kts 281°
2026-05-09 13:36 38.28773 20.45913 42962 ft 422 kts 281°
2026-05-09 13:36 38.29717 20.38537 42966 ft 422 kts 281°
2026-05-09 13:37 38.30651 20.31202 42957 ft 422 kts 281°
2026-05-09 13:37 38.31635 20.23804 42950 ft 421 kts 283°
2026-05-09 13:38 38.32873 20.16559 42959 ft 420 kts 284°
2026-05-09 13:38 38.34095 20.09278 42951 ft 421 kts 283°
2026-05-09 13:39 38.35315 20.01981 42945 ft 421 kts 283°
2026-05-09 13:39 38.36528 19.94691 42953 ft 419 kts 283°
2026-05-09 13:40 38.37730 19.87440 42957 ft 420 kts 283°
2026-05-09 13:40 38.38933 19.80148 42966 ft 420 kts 283°
2026-05-09 13:41 38.40137 19.72824 42955 ft 419 kts 283°
2026-05-09 13:41 38.41321 19.65584 42958 ft 420 kts 283°
2026-05-09 13:42 38.42508 19.58307 42970 ft 420 kts 283°
2026-05-09 13:42 38.43698 19.50977 42969 ft 421 kts 283°
2026-05-09 13:43 38.44873 19.43707 42967 ft 420 kts 283°
2026-05-09 13:43 38.46045 19.36420 42971 ft 419 kts 283°
2026-05-09 13:44 38.47214 19.29133 42984 ft 419 kts 282°
2026-05-09 13:44 38.48386 19.21798 42978 ft 420 kts 282°
2026-05-09 13:45 38.49550 19.14466 42983 ft 420 kts 282°
2026-05-09 13:45 38.50708 19.07156 42983 ft 420 kts 282°
2026-05-09 13:46 38.51884 18.99880 42973 ft 419 kts 285°
2026-05-09 13:46 38.53702 18.92819 42974 ft 418 kts 288°
2026-05-09 13:47 38.55530 18.85784 42966 ft 419 kts 288°
2026-05-09 13:47 38.57362 18.78708 42968 ft 419 kts 288°
2026-05-09 13:48 38.59179 18.71661 42966 ft 419 kts 288°
2026-05-09 13:48 38.60999 18.64589 42968 ft 420 kts 288°
2026-05-09 13:49 38.62815 18.57503 42972 ft 419 kts 288°
2026-05-09 13:49 38.64631 18.50404 42973 ft 419 kts 288°
2026-05-09 13:50 38.66434 18.43335 42972 ft 419 kts 288°
2026-05-09 13:50 38.68232 18.36268 42976 ft 419 kts 288°
2026-05-09 13:51 38.70038 18.29150 42979 ft 420 kts 288°
2026-05-09 13:51 38.71862 18.22018 42975 ft 420 kts 290°
2026-05-09 13:52 38.74169 18.15168 42981 ft 421 kts 292°
2026-05-09 13:52 38.76501 18.08275 42980 ft 420 kts 292°
2026-05-09 13:53 38.78828 18.01373 42987 ft 421 kts 292°
2026-05-09 13:53 38.81142 17.94490 42994 ft 421 kts 292°
2026-05-09 13:54 38.83440 17.87644 42981 ft 421 kts 292°
2026-05-09 13:54 38.85751 17.80738 42985 ft 422 kts 292°
2026-05-09 13:55 38.88068 17.73798 42984 ft 422 kts 292°
2026-05-09 13:55 38.90376 17.66870 42975 ft 421 kts 292°
2026-05-09 13:56 38.92656 17.60009 42980 ft 421 kts 292°
2026-05-09 13:56 38.94960 17.53057 42978 ft 420 kts 292°
2026-05-09 13:57 38.97258 17.46106 42977 ft 422 kts 292°
2026-05-09 13:57 38.99540 17.39188 42977 ft 421 kts 292°
2026-05-09 13:58 39.01815 17.32276 42997 ft 421 kts 291°
2026-05-09 13:58 39.04107 17.25297 42993 ft 421 kts 291°
2026-05-09 13:59 39.06361 17.18408 42994 ft 420 kts 291°
2026-05-09 13:59 39.08634 17.11452 42999 ft 422 kts 291°
2026-05-09 14:00 39.10157 17.06778 42993 ft 422 kts 291°
2026-05-09 14:00 39.13179 16.97487 42997 ft 422 kts 291°
2026-05-09 14:01 39.15444 16.90500 43007 ft 422 kts 291°
2026-05-09 14:01 39.17703 16.83514 43010 ft 422 kts 291°
2026-05-09 14:02 39.19946 16.76558 43014 ft 421 kts 291°
2026-05-09 14:02 39.22189 16.69532 43024 ft 423 kts 290°
2026-05-09 14:03 39.24381 16.62495 43032 ft 424 kts 290°
2026-05-09 14:03 39.26570 16.55451 43040 ft 423 kts 290°
2026-05-09 14:04 39.28752 16.48418 43045 ft 423 kts 290°
2026-05-09 14:04 39.30942 16.41338 43035 ft 423 kts 290°
2026-05-09 14:05 39.33118 16.34284 43022 ft 423 kts 290°
2026-05-09 14:05 39.35292 16.27222 43020 ft 424 kts 290°
2026-05-09 14:06 39.37462 16.20150 43005 ft 423 kts 289°
2026-05-09 14:06 39.39625 16.13083 43002 ft 423 kts 289°
2026-05-09 14:07 39.41799 16.05965 42999 ft 424 kts 290°
2026-05-09 14:07 39.43957 15.98880 42995 ft 424 kts 289°
2026-05-09 14:08 39.46112 15.91786 42982 ft 423 kts 289°
2026-05-09 14:08 39.48259 15.84696 42974 ft 424 kts 289°
2026-05-09 14:09 39.50415 15.77563 42969 ft 425 kts 289°
2026-05-09 14:09 39.52553 15.70470 42961 ft 424 kts 289°
2026-05-09 14:10 39.55777 15.59735 42963 ft 425 kts 289°
2026-05-09 14:11 39.57909 15.52614 42962 ft 425 kts 289°
2026-05-09 14:11 39.60040 15.45476 42963 ft 425 kts 289°
2026-05-09 14:12 39.62179 15.38292 42962 ft 426 kts 289°
2026-05-09 14:12 39.64312 15.31112 42973 ft 426 kts 289°
2026-05-09 14:13 39.66449 15.23893 42969 ft 426 kts 289°
2026-05-09 14:15 39.74913 14.95121 42967 ft 426 kts 289°
2026-05-09 14:15 39.77020 14.87912 42967 ft 425 kts 288°
2026-05-09 14:16 39.79120 14.80705 42969 ft 426 kts 288°
2026-05-09 14:16 39.81161 14.73474 42964 ft 424 kts 285°
2026-05-09 14:17 39.82883 14.66107 42971 ft 424 kts 285°
2026-05-09 14:17 39.84627 14.58717 42970 ft 424 kts 285°
2026-05-09 14:18 39.86356 14.51365 42957 ft 424 kts 285°
2026-05-09 14:18 39.88086 14.43991 42959 ft 425 kts 285°
2026-05-09 14:19 39.89796 14.36676 42968 ft 425 kts 285°
2026-05-09 14:19 39.91526 14.29260 42969 ft 426 kts 284°
2026-05-09 14:20 39.93251 14.21831 42968 ft 425 kts 284°
2026-05-09 14:20 39.94960 14.14452 42968 ft 426 kts 284°
2026-05-09 14:21 39.97517 14.03370 42969 ft 426 kts 284°
2026-05-09 14:21 39.99222 13.95948 42963 ft 426 kts 284°
2026-05-09 14:22 40.00921 13.88527 42965 ft 426 kts 284°
2026-05-09 14:22 40.02620 13.81086 42968 ft 426 kts 284°
2026-05-09 14:23 40.04317 13.73623 42955 ft 426 kts 284°
2026-05-09 14:23 40.05996 13.66216 42967 ft 425 kts 284°
2026-05-09 14:24 40.07664 13.58833 42956 ft 425 kts 284°
2026-05-09 14:24 40.09329 13.51440 42955 ft 425 kts 284°
2026-05-09 14:25 40.11008 13.43961 42959 ft 426 kts 284°
2026-05-09 14:25 40.12670 13.36533 42951 ft 426 kts 284°
2026-05-09 14:26 40.14323 13.29118 42963 ft 427 kts 283°
2026-05-09 14:26 40.15989 13.21624 42966 ft 428 kts 283°
2026-05-09 14:27 40.17645 13.14145 42966 ft 427 kts 283°
2026-05-09 14:27 40.19282 13.06726 42963 ft 427 kts 283°
2026-05-09 14:28 40.20776 12.99198 42960 ft 425 kts 278°
2026-05-09 14:28 40.21810 12.91564 42952 ft 425 kts 278°
2026-05-09 14:29 40.22847 12.83941 42947 ft 426 kts 277°
2026-05-09 14:29 40.23861 12.76466 42754 ft 405 kts 278°
2026-05-09 14:30 40.24347 12.72866 42299 ft 399 kts 278°
2026-05-09 14:30 40.24830 12.69272 41105 ft 406 kts 278°
2026-05-09 14:30 40.25315 12.65656 40121 ft 407 kts 277°
2026-05-09 14:30 40.25804 12.62016 39509 ft 401 kts 277°
2026-05-09 14:31 40.26282 12.58434 38890 ft 404 kts 278°
2026-05-09 14:31 40.26765 12.54813 38265 ft 402 kts 277°
2026-05-09 14:31 40.27247 12.51185 37644 ft 402 kts 277°
2026-05-09 14:31 40.27729 12.47551 37028 ft 404 kts 277°
2026-05-09 14:32 40.28210 12.43917 36418 ft 405 kts 277°
2026-05-09 14:32 40.28685 12.40318 35815 ft 406 kts 277°
2026-05-09 14:32 40.29167 12.36656 35202 ft 410 kts 277°
2026-05-09 14:32 40.29657 12.32923 34594 ft 411 kts 277°
2026-05-09 14:33 40.30139 12.29244 34025 ft 414 kts 277°
2026-05-09 14:33 40.30632 12.25475 33470 ft 417 kts 277°
2026-05-09 14:33 40.31123 12.21708 32924 ft 420 kts 277°
2026-05-09 14:33 40.31614 12.17927 32381 ft 425 kts 277°
2026-05-09 14:34 40.32109 12.14109 31841 ft 428 kts 276°
2026-05-09 14:34 40.32608 12.10251 31293 ft 430 kts 276°
2026-05-09 14:34 40.33104 12.06396 30751 ft 433 kts 276°
2026-05-09 14:34 40.33604 12.02514 30202 ft 432 kts 277°
2026-05-09 14:35 40.34105 11.98607 29647 ft 430 kts 276°
2026-05-09 14:35 40.34597 11.94761 29096 ft 426 kts 276°
2026-05-09 14:35 40.35081 11.90972 28779 ft 420 kts 276°
2026-05-09 14:35 40.35557 11.87225 28531 ft 419 kts 276°
2026-05-09 14:36 40.36039 11.83418 28290 ft 419 kts 277°
2026-05-09 14:36 40.36515 11.79656 28047 ft 419 kts 276°
2026-05-09 14:36 40.36992 11.75872 27805 ft 418 kts 276°
2026-05-09 14:36 40.37463 11.72133 27563 ft 417 kts 276°
2026-05-09 14:37 40.37929 11.68414 27320 ft 414 kts 276°
2026-05-09 14:37 40.38396 11.64689 27083 ft 414 kts 276°
2026-05-09 14:37 40.39137 11.60997 26829 ft 416 kts 285°
2026-05-09 14:37 40.40072 11.57456 26600 ft 416 kts 285°
2026-05-09 14:38 40.41020 11.53838 26359 ft 413 kts 285°
2026-05-09 14:38 40.41943 11.50301 26118 ft 412 kts 285°
2026-05-09 14:38 40.42873 11.46726 25868 ft 411 kts 285°
2026-05-09 14:38 40.43800 11.43155 25621 ft 409 kts 285°
2026-05-09 14:39 40.44721 11.39600 25376 ft 407 kts 285°
2026-05-09 14:39 40.45629 11.36096 25131 ft 406 kts 285°
2026-05-09 14:39 40.46535 11.32591 24898 ft 404 kts 284°
2026-05-09 14:39 40.47431 11.29117 24676 ft 403 kts 285°
2026-05-09 14:40 40.48342 11.25576 24506 ft 412 kts 285°
2026-05-09 14:40 40.49253 11.22040 24335 ft 413 kts 284°
2026-05-09 14:40 40.50182 11.18426 24160 ft 412 kts 284°
2026-05-09 14:40 40.51099 11.14854 23979 ft 411 kts 285°
2026-05-09 14:41 40.52009 11.11301 23802 ft 408 kts 285°
2026-05-09 14:41 40.52923 11.07732 23620 ft 407 kts 284°
2026-05-09 14:41 40.53827 11.04191 23438 ft 407 kts 285°
2026-05-09 14:41 40.54716 11.00704 23261 ft 406 kts 285°
2026-05-09 14:42 40.55612 10.97188 23085 ft 405 kts 284°
2026-05-09 14:42 40.56504 10.93680 22916 ft 404 kts 284°
2026-05-09 14:42 40.57402 10.90144 22745 ft 405 kts 284°
2026-05-09 14:42 40.58288 10.86651 22576 ft 403 kts 284°
2026-05-09 14:43 40.59172 10.83161 22404 ft 403 kts 284°
2026-05-09 14:43 40.60057 10.79662 22232 ft 402 kts 284°
2026-05-09 14:43 40.60940 10.76163 22058 ft 402 kts 284°
2026-05-09 14:43 40.61814 10.72698 21887 ft 401 kts 284°
2026-05-09 14:44 40.62694 10.69202 21713 ft 401 kts 284°
2026-05-09 14:44 40.63570 10.65718 21540 ft 401 kts 284°
2026-05-09 14:44 40.64442 10.62240 21367 ft 401 kts 284°
2026-05-09 14:44 40.65321 10.58739 21190 ft 400 kts 284°
2026-05-09 14:45 40.66185 10.55285 21017 ft 399 kts 284°
2026-05-09 14:45 40.67054 10.51813 20841 ft 398 kts 284°
2026-05-09 14:45 40.67918 10.48348 20666 ft 397 kts 284°
2026-05-09 14:45 40.68771 10.44922 20492 ft 398 kts 285°
2026-05-09 14:46 40.69637 10.41446 20314 ft 396 kts 285°
2026-05-09 14:46 40.70498 10.37981 20135 ft 395 kts 285°
2026-05-09 14:46 40.71349 10.34553 19958 ft 393 kts 284°
2026-05-09 14:46 40.72194 10.31139 19792 ft 392 kts 284°
2026-05-09 14:47 40.73043 10.27709 19626 ft 391 kts 284°
2026-05-09 14:47 40.73882 10.24316 19458 ft 391 kts 284°
2026-05-09 14:47 40.74717 10.20928 19287 ft 389 kts 284°
2026-05-09 14:47 40.75554 10.17529 19119 ft 388 kts 284°
2026-05-09 14:48 40.76290 10.14094 18930 ft 383 kts 276°
2026-05-09 14:48 40.76321 10.10648 18743 ft 379 kts 264°
2026-05-09 14:48 40.76109 10.07203 18424 ft 364 kts 263°
2026-05-09 14:48 40.75903 10.03974 18057 ft 349 kts 263°
2026-05-09 14:49 40.75697 10.00818 17561 ft 339 kts 263°
2026-05-09 14:49 40.75496 9.97747 17061 ft 331 kts 263°
2026-05-09 14:49 40.75298 9.94749 16577 ft 324 kts 263°
2026-05-09 14:49 40.75113 9.91836 16080 ft 317 kts 261°
2026-05-09 14:50 40.74819 9.88968 15548 ft 313 kts 260°
2026-05-09 14:50 40.74529 9.86136 14979 ft 312 kts 260°
2026-05-09 14:50 40.74243 9.83339 14407 ft 310 kts 260°
2026-05-09 14:50 40.73955 9.80523 13834 ft 309 kts 260°
2026-05-09 14:51 40.73667 9.77712 13256 ft 308 kts 260°
2026-05-09 14:51 40.73378 9.74898 12689 ft 308 kts 260°
2026-05-09 14:51 40.73090 9.72082 12127 ft 307 kts 260°
2026-05-09 14:51 40.72799 9.69268 11547 ft 306 kts 260°
2026-05-09 14:52 40.72508 9.66451 10976 ft 305 kts 259°
2026-05-09 14:52 40.72142 9.63629 10386 ft 301 kts 253°
2026-05-09 14:52 40.71574 9.60943 9807 ft 300 kts 252°
2026-05-09 14:52 40.71070 9.58624 9311 ft 300 kts 252°
2026-05-09 14:53 40.70487 9.55980 8746 ft 299 kts 252°
2026-05-09 14:53 40.69903 9.53351 8212 ft 297 kts 251°
2026-05-09 14:53 40.69323 9.50746 7791 ft 292 kts 251°
2026-05-09 14:53 40.68747 9.48171 7370 ft 288 kts 251°
2026-05-09 14:54 40.68188 9.45679 6972 ft 284 kts 251°
2026-05-09 14:54 40.67636 9.43210 6722 ft 275 kts 251°
2026-05-09 14:54 40.67093 9.40796 6470 ft 278 kts 251°
2026-05-09 14:54 40.66545 9.38358 6212 ft 270 kts 251°
2026-05-09 14:55 40.66020 9.36023 5965 ft 264 kts 251°
2026-05-09 14:55 40.65692 9.33680 5766 ft 261 kts 270°
2026-05-09 14:55 40.66206 9.31417 5596 ft 259 kts 299°
2026-05-09 14:55 40.67449 9.29733 5427 ft 256 kts 322°
2026-05-09 14:56 40.68888 9.28382 5266 ft 252 kts 323°
2026-05-09 14:56 40.70287 9.27080 5174 ft 240 kts 324°
2026-05-09 14:56 40.71643 9.25830 4947 ft 235 kts 326°
2026-05-09 14:56 40.73198 9.25186 4738 ft 227 kts
2026-05-09 14:57 40.74718 9.25517 4661 ft 214 kts 15°
2026-05-09 14:57 40.76086 9.26085 4554 ft 201 kts 34°
2026-05-09 14:57 40.76996 9.27371 4502 ft 187 kts 58°
2026-05-09 14:57 40.77754 9.28798 4448 ft 187 kts 59°
2026-05-09 14:58 40.78516 9.30241 4280 ft 194 kts 59°
2026-05-09 14:58 40.79298 9.31719 3998 ft 194 kts 59°
2026-05-09 14:58 40.80079 9.33192 3705 ft 194 kts 59°
2026-05-09 14:58 40.80852 9.34654 3394 ft 187 kts 59°
2026-05-09 14:59 40.81554 9.35972 3096 ft 167 kts 60°
2026-05-09 14:59 40.82207 9.37209 2857 ft 161 kts 60°
2026-05-09 14:59 40.82831 9.38399 2669 ft 158 kts 60°
2026-05-09 14:59 40.83459 9.39599 2412 ft 158 kts 60°
2026-05-09 15:00 40.84097 9.40804 2148 ft 156 kts 60°
2026-05-09 15:00 40.84715 9.41967 1901 ft 152 kts 62°
2026-05-09 15:00 40.85302 9.43088 1671 ft 148 kts 61°
2026-05-09 15:00 40.85890 9.44208 1432 ft 145 kts 60°
2026-05-09 15:01 40.87001 9.46315 1000 ft 128 kts 60°
2026-05-09 15:01 40.87498 9.47254 797 ft 122 kts 58°
2026-05-09 15:01 40.87989 9.48164 584 ft 120 kts 58°
2026-05-09 15:02 40.88463 9.49088 416 ft 121 kts 58°
2026-05-09 15:02 40.88952 9.49999 256 ft 124 kts 58°
2026-05-09 15:02 40.89436 9.50943 80 ft 122 kts 57°
2026-05-09 15:02 40.89875 9.51781 49 ft 94 kts 55°
2026-05-09 15:03 40.90145 9.52294 48 ft 42 kts 54°
2026-05-09 15:03 40.90293 9.52579 48 ft 33 kts 55°
2026-05-09 15:03 40.90411 9.52688 48 ft 15 kts 349°
2026-05-09 15:03 40.90451 9.52609 48 ft 10 kts 275°
2026-05-09 15:04 40.90454 9.52554 48 ft 4 kts 273°
2026-05-09 15:04 40.90455 9.52509 48 ft 5 kts 265°
2026-05-09 15:06 40.90125 9.51866 48 ft 15 kts 235°
2026-05-09 15:06 40.90063 9.51744 48 ft 15 kts 236°
2026-05-09 15:06 40.89997 9.51624 48 ft 16 kts 233°
2026-05-09 15:06 40.89944 9.51521 48 ft 12 kts 236°
2026-05-09 15:07 40.89893 9.51422 48 ft 13 kts 234°
2026-05-09 15:07 40.89840 9.51319 48 ft 13 kts 235°
2026-05-09 15:07 40.89785 9.51214 48 ft 14 kts 236°
2026-05-09 15:07 40.89727 9.51105 48 ft 14 kts 236°
2026-05-09 15:08 40.89669 9.50991 48 ft 15 kts 236°
2026-05-09 15:08 40.89570 9.50797 48 ft 4 kts 252°
2026-05-09 15:08 40.89572 9.50752 48 ft 5 kts 297°
2026-05-09 15:09 40.89616 9.50706 48 ft 11 kts 325°
2026-05-09 15:10 40.89615 9.50326 48 ft 2 kts 342°
2026-05-09 15:11 40.89630 9.50331 48 ft 1 kts 34°
2026-05-09 15:11 40.89634 9.50348 48 ft 1 kts 92°
2026-05-09 15:11 40.89633 9.50355 48 ft 0 kts 107°